Location: Bothwell
(42.3833°S, 147.0000°E)
Time: 09:06:51
(UTC+11:00)

CAS-4A - Visible Passes

Search period start: 05 October 2023 00:00
Search period end: 15 October 2023 00:00
Orbit: 500 x 514 km, 43.0° (Epoch: 04 October)

Date Brightness Start Highest point End Pass type
(mag) Time Alt. Az. Time Alt. Az. Time Alt. Az.
05 Oct ? 05:31:24 10° N 05:33:41 15° NE 05:35:59 10° ENE visible
06 Oct ? 05:11:08 10° N 05:13:38 16° NE 05:16:09 10° ENE visible
07 Oct ? 04:52:09 15° N 04:53:33 18° NE 04:56:16 10° ENE visible
08 Oct ? 04:33:05 19° NNE 04:33:26 19° NE 04:36:19 10° E visible
09 Oct ? 04:13:55 20° NE 04:13:55 20° NE 04:16:19 10° E visible
09 Oct ? 05:48:38 12° WNW 05:52:22 67° NNE 05:56:21 10° E visible
10 Oct ? 03:54:40 18° ENE 03:54:40 18° ENE 03:56:15 10° E visible
10 Oct ? 05:29:23 18° WNW 05:32:12 71° NNE 05:36:13 10° E visible
11 Oct ? 03:35:20 14° ENE 03:35:20 14° ENE 03:36:09 10° E visible
11 Oct ? 05:10:02 28° WNW 05:12:02 74° NNE 05:16:02 10° E visible
12 Oct ? 03:15:56 10° E 03:15:56 10° E 03:16:01 10° E visible
12 Oct ? 04:50:38 44° WNW 04:51:49 77° NNE 04:55:49 10° E visible
13 Oct ? 04:31:11 70° NW 04:31:34 80° NNE 04:35:35 10° E visible
14 Oct ? 04:11:41 70° E 04:11:41 70° E 04:15:18 10° E visible
14 Oct ? 05:46:50 10° W 05:50:50 83° S 05:54:51 10° E visible
